GFSFLT2_925_temp_120.txt.gz
Temp
12 12 12 12 13 12 11 11 10 10 9 9 9 9 8 8 7 8 7 7 6 6 5 5 5 5 5
11 11 11 11 11 10 10 10 9 9 9 8 8 8 8 7 7 7 6 6 6 5 5 4 3 4 5
10 9 9 10 9 8 8 8 8 8 8 7 7 7 8 7 6 5 5 4 3 4 4 3 2 3 4
8 8 8 7 7 6 6 6 6 6 6 7 6 6 6 5 5 5 4 4 3 3 2 2 2 2 4
7 7 6 5 6 6 5 6 5 6 6 6 5 6 5 5 4 5 4 3 3 2 1 1 1 2 3
7 7 7 6 6 6 6 5 4 5 4 4 5 5 5 5 4 5 4 3 2 1 0 1 1 2 3
5 5 6 6 6 6 5 5 6 7 4 4 4 3 4 4 4 4 3 3 1 1 0 0 0 1 3
4 4 4 5 5 6 6 5 5 5 4 4 2 2 2 3 3 3 2 1 0 1 -0 -0 -0 2 4
3 4 4 4 4 5 5 3 3 2 3 2 0 0 0 0 1 1 2 0 -0 0 -1 -1 -0 2 4
2 3 3 3 4 4 4 3 3 0 2 1 -1 0 -1 -1 -1 0 0 0 -1 -1 -1 -1 -0 2 3
2 2 2 3 3 3 4 3 2 2 3 1 -0 -0 -1 -3 -2 -1 0 0 -1 -1 -1 -0 -0 2 2
1 1 1 2 2 2 2 2 2 3 3 1 0 -0 -2 -2 -2 -2 -1 -1 -1 -1 -1 -0 0 2 2
1 1 1 1 1 1 0 1 1 1 1 1 -0 -1 -1 -1 -2 -2 -2 -2 -3 -2 -1 -0 -0 1 0
0 0 0 0 -0 -1 -1 -1 -1 -1 -1 -1 -1 -1 -2 -2 -2 -2 -2 -2 -3 -2 -1 -1 -0 0 0
-1 -1 -1 -1 -1 -1 -2 -2 -2 -3 -4 -3 -3 -2 -2 -2 -2 -2 -2 -3 -3 -2 -2 -2 -1 -0 -0
-2 -1 -1 -1 -2 -2 -2 -2 -2 -2 -3 -4 -4 -4 -4 -4 -2 -2 -3 -4 -4 -3 -2 -2 -2 -1 -1
-3 -2 -1 -2 -2 -3 -3 -2 -2 -2 -3 -4 -4 -2 -2 -1 -4 -3 -3 -4 -4 -3 -2 -2 -2 -2 -2

GFSFLT2_925_temp_126.txt.gz
Temp
10 10 10 10 10 10 10 10 11 11 11 11 10 10 10 10 11 11 11 11 10 10 8 8 7 7 7
8 9 9 9 8 8 7 7 7 8 9 9 8 8 9 9 9 10 10 10 9 9 8 8 6 6 6
7 7 7 8 8 8 8 8 8 7 6 6 6 7 7 8 9 9 9 9 9 8 7 7 6 5 5
5 5 5 6 6 6 6 6 6 7 7 8 8 7 6 7 8 9 9 9 8 7 7 6 6 6 5
4 4 5 5 5 5 5 5 5 6 6 7 7 7 7 7 7 8 8 8 7 7 6 6 5 5 4
3 3 4 4 4 3 4 4 4 5 5 4 6 5 5 6 6 6 7 7 7 6 5 4 3 3 2
2 1 1 2 2 2 2 3 3 4 3 3 4 4 6 6 6 6 6 6 6 5 4 3 2 2 2
1 1 1 1 1 1 2 2 2 2 3 3 4 4 5 5 5 5 5 5 5 4 3 4 3 1 3
-0 0 1 1 2 2 2 1 2 2 3 2 3 3 3 4 4 4 3 4 4 3 3 2 1 0 0
-1 -1 -1 0 1 1 0 1 1 1 3 2 2 2 2 1 3 3 2 3 3 3 1 0 -0 -0 -0
-1 -2 -1 -1 -0 -0 -0 -0 -0 0 1 1 1 0 0 0 -1 1 0 1 2 1 -0 -1 -1 -1 -1
-2 -2 -2 -2 -2 -1 -0 -1 -1 -1 -0 -0 0 1 -0 -1 -1 -1 -1 -1 -0 -1 -1 -1 -2 -2 -1
-2 -3 -3 -2 -2 -1 -1 -1 -1 -1 -1 -0 -1 -0 -1 -1 -1 -2 -2 -2 -1 -1 -2 -2 -2 -1 -0
-3 -3 -3 -3 -3 -2 -2 -2 -2 -1 -1 -1 -1 -1 -1 -1 -2 -2 -1 -2 -2 -2 -2 -3 -2 -1 -1
-4 -4 -3 -3 -3 -2 -2 -2 -3 -2 -2 -2 -3 -3 -2 -2 -2 -2 -2 -2 -2 -2 -3 -3 -2 -1 -1
-4 -4 -4 -3 -3 -2 -2 -2 -2 -2 -2 -2 -3 -3 -3 -3 -3 -3 -3 -3 -3 -3 -3 -3 -3 -2 -1
-5 -5 -4 -4 -3 -3 -2 -2 -2 -2 -2 -2 -3 -3 -4 -3 -4 -3 -3 -3 -3 -3 -2 -2 -3 -2 -1

GFSFLT2_925_temp_129.txt.gz
Temp
10 10 10 10 10 9 9 9 8 8 8 8 8 7 7 7 8 9 10 10 10 11 11 11 10 9 9
7 8 7 7 7 7 7 7 7 7 7 7 7 8 8 8 9 9 9 9 9 10 11 10 9 9 8
5 5 5 6 5 5 5 6 6 6 6 6 6 7 7 7 7 8 8 8 9 9 10 10 9 8 8
4 4 4 4 4 4 4 4 4 5 5 5 6 6 6 6 6 6 7 7 8 9 9 9 8 7 7
3 3 3 3 2 2 2 2 3 4 4 5 5 5 5 6 6 6 6 7 7 8 8 8 7 6 6
1 1 1 1 1 1 1 1 1 3 3 2 3 3 4 4 4 5 6 6 6 6 7 7 5 5 5
0 0 0 0 0 0 0 0 1 2 2 2 3 2 3 4 4 4 5 5 5 6 6 6 5 5 4
0 -0 -0 0 0 1 1 1 1 2 3 1 2 2 3 4 4 4 4 3 4 4 5 5 5 4 3
-1 -1 -1 -1 -0 0 0 0 1 1 1 1 2 2 2 3 3 4 4 4 3 4 5 5 3 2 2
-1 -2 -2 -1 -1 -1 -1 -0 -0 0 1 0 1 1 1 2 2 3 3 3 2 4 4 3 2 1 1
-2 -2 -2 -2 -2 -2 -2 -1 -1 -1 -1 -1 -1 -1 -0 0 1 2 2 1 1 2 2 1 0 -0 -1
-3 -3 -2 -3 -2 -2 -2 -2 -1 -2 -1 -2 -2 -1 -1 0 -1 0 1 -1 -1 -0 0 -0 -0 -0 -1
-3 -3 -3 -3 -2 -2 -2 -1 -2 -1 -1 -2 -2 -2 -2 -1 -1 -1 -1 -2 -2 -1 -1 -2 -2 -2 -2
-4 -4 -3 -3 -3 -2 -2 -2 -2 -2 -2 -2 -2 -2 -2 -2 -2 -2 -2 -2 -2 -2 -2 -2 -2 -2 -2
-5 -5 -5 -4 -4 -3 -3 -3 -2 -2 -2 -2 -2 -2 -3 -3 -2 -2 -2 -2 -2 -3 -3 -3 -2 -2 -2
-6 -5 -5 -5 -5 -4 -3 -3 -2 -2 -3 -2 -3 -3 -3 -3 -3 -3 -3 -3 -3 -3 -3 -3 -3 -2 -1
-6 -6 -6 -5 -5 -5 -4 -3 -3 -3 -2 -2 -3 -4 -5 -3 -3 -3 -3 -3 -3 -3 -3 -3 -3 -2 -2

GFSFLT2_925_temp_135.txt.gz
Temp
8 7 6 6 6 5 5 5 6 6 6 5 6 5 5 5 5 5 6 6 6 6 6 7 8 8 10
6 5 5 4 4 4 4 5 5 5 6 6 5 4 4 4 4 4 4 4 5 5 5 6 6 7 7
4 3 3 3 3 4 4 4 5 4 4 4 3 3 3 3 3 3 3 3 3 4 4 5 5 6 6
3 3 2 2 2 1 0 1 3 3 3 3 3 3 3 3 2 3 3 3 3 4 4 4 4 5 5
1 1 0 -0 -0 -1 -1 -1 0 2 1 1 2 3 2 2 3 3 2 2 3 3 3 4 4 4 5
-0 -1 -1 -1 -1 -1 -0 0 0 1 -0 -0 -0 0 1 2 2 1 2 2 2 2 2 3 3 4 4
-1 -1 -1 -1 -1 -1 -1 -1 -0 0 0 -0 0 1 1 1 1 1 2 2 2 2 2 2 4 3 5
-1 -1 -1 -1 -1 -1 -2 -1 -1 -0 -0 -1 0 0 0 -0 1 1 1 1 1 1 2 2 3 4 5
-1 -2 -2 -2 -1 -2 -3 -3 -2 -2 -1 -1 -0 -1 -1 0 1 1 1 1 1 1 1 2 4 4 4
-1 -2 -3 -3 -3 -3 -3 -3 -3 -2 -1 -2 -1 -2 -2 -0 0 -1 -1 -0 -1 0 0 0 2 2 2
-3 -3 -3 -3 -4 -4 -3 -3 -4 -3 -2 -2 -2 -2 -2 -2 -1 -2 -1 -2 -1 -1 -2 -0 -0 0 1
-4 -4 -4 -5 -5 -4 -4 -3 -3 -3 -3 -3 -3 -3 -3 -3 -2 -1 -2 -2 -2 -2 -2 -2 -1 -1 -1
-5 -5 -5 -5 -5 -5 -5 -4 -4 -3 -2 -2 -3 -3 -3 -4 -3 -3 -3 -3 -3 -2 -2 -2 -2 -2 -2
-5 -5 -6 -6 -5 -5 -6 -6 -5 -4 -3 -3 -3 -3 -3 -4 -4 -4 -4 -4 -2 -2 -3 -2 -2 -2 -2
-6 -6 -6 -6 -6 -6 -6 -7 -6 -5 -5 -3 -2 -3 -3 -3 -4 -4 -4 -4 -3 -3 -3 -3 -2 -2 -2
-6 -7 -7 -7 -7 -6 -7 -7 -6 -5 -6 -5 -3 -3 -3 -2 -3 -4 -4 -4 -3 -3 -4 -4 -3 -1 -1
-7 -7 -7 -7 -8 -7 -7 -7 -7 -7 -6 -5 -4 -4 -8 -8 -3 -4 -4 -5 -5 -4 -3 -3 -4 -1 -1

GFSFLT2_925_temp_138.txt.gz
Temp
7 6 6 6 5 5 5 5 4 4 5 4 5 5 4 4 4 4 4 4 5 5 6 6 6 7 7
5 4 4 4 3 3 3 3 3 3 5 5 3 3 3 3 3 3 3 3 3 4 4 5 5 5 6
3 3 2 3 3 3 3 4 4 4 3 3 3 3 2 2 2 2 2 2 3 3 3 4 4 4 5
2 2 2 1 1 -0 -0 2 2 2 2 1 2 2 2 1 2 2 2 2 2 3 3 3 3 3 4
1 0 -0 -1 -1 -1 -1 -0 1 1 1 1 1 1 1 1 1 1 1 1 2 3 3 3 3 3 3
-1 -1 -1 -1 -1 -1 -1 -1 -1 0 0 -1 -0 0 1 1 0 0 1 2 2 2 2 2 2 2 2
-1 -1 -1 -1 -1 -1 -1 -1 -1 -1 -1 -1 -1 0 0 -0 1 -0 1 2 1 1 1 1 1 2 3
-1 -2 -2 -2 -2 -2 -2 -3 -3 -2 -2 -2 -0 -1 -1 -1 0 1 1 0 0 0 -0 -0 1 2 2
-1 -2 -2 -2 -2 -3 -3 -3 -3 -2 -2 -2 -1 -1 -1 -1 0 1 1 -1 -1 -1 -1 -1 0 1 2
-2 -2 -3 -3 -3 -4 -4 -4 -4 -3 -2 -3 -2 -2 -2 -1 -0 -1 -1 -1 -1 -2 -2 -1 -1 -0 0
-3 -3 -4 -4 -4 -4 -4 -5 -5 -4 -3 -3 -3 -3 -3 -3 -2 -2 -2 -2 -3 -3 -2 -1 -2 -1 -1
-4 -4 -5 -5 -5 -5 -5 -5 -5 -5 -4 -3 -3 -3 -3 -3 -3 -1 -3 -3 -3 -3 -3 -3 -2 -1 -1
-5 -5 -6 -6 -6 -5 -5 -5 -4 -4 -4 -4 -3 -3 -3 -3 -3 -3 -3 -3 -4 -3 -3 -2 -2 -2 -2
-6 -6 -6 -6 -6 -6 -6 -7 -7 -6 -5 -4 -4 -4 -4 -4 -4 -4 -4 -4 -4 -4 -4 -4 -2 -2 -2
-6 -7 -7 -7 -7 -7 -7 -8 -7 -6 -6 -4 -3 -3 -3 -3 -4 -4 -4 -4 -4 -4 -4 -4 -2 -2 -2
-7 -7 -7 -7 -7 -7 -7 -7 -8 -7 -7 -5 -6 -5 -4 -2 -2 -3 -4 -4 -5 -5 -4 -4 -4 -0 -1
-7 -7 -7 -7 -7 -8 -8 -8 -8 -7 -6 -6 -6 -5 -7 -8 -3 -4 -4 -4 -5 -5 -5 -4 -5 -1 -1

GFSFLT2_925_temp_141.txt.gz
Temp
7 5 5 5 5 5 4 5 5 4 4 4 3 3 3 3 4 4 4 4 4 4 5 5 6 6 6
4 4 4 3 3 3 3 3 4 3 3 3 2 2 3 3 3 3 3 3 3 3 4 4 4 5 5
3 3 3 3 2 3 3 3 3 3 2 2 3 4 3 3 2 2 2 3 2 3 3 3 3 4 4
2 2 2 1 1 0 1 1 1 1 1 2 3 2 2 1 1 2 2 1 2 2 3 3 3 3 3
1 1 0 -0 -0 -1 -0 -0 0 1 0 0 1 1 1 1 1 0 1 1 2 3 2 3 2 2 2
-0 0 -0 -1 -1 -1 -1 -0 1 -1 -1 -1 0 -0 0 -0 -0 -1 0 1 2 2 2 1 1 1 2
-0 -1 -1 -2 -2 -1 -1 -1 -1 -1 -2 -1 -1 -1 -1 -1 -0 -1 0 1 1 0 0 0 0 0 1
-1 -1 -2 -2 -2 -2 -2 -3 -2 -2 -2 -2 -1 -1 -1 -1 0 0 0 -0 -0 -0 -0 -0 -0 -1 0
-1 -2 -2 -2 -2 -3 -3 -3 -2 -2 -3 -3 -1 -2 -2 -1 -0 -0 -0 -1 -1 -1 -1 -1 -1 -1 -0
-2 -2 -2 -3 -3 -4 -5 -4 -4 -3 -3 -3 -3 -2 -1 -1 -1 -2 -2 -2 -2 -2 -2 -2 -2 -2 -1
-3 -3 -4 -4 -5 -5 -5 -5 -5 -5 -4 -4 -3 -3 -2 -2 -2 -2 -2 -2 -3 -3 -3 -3 -3 -2 -2
-4 -4 -5 -5 -5 -5 -5 -5 -5 -6 -5 -5 -5 -4 -3 -3 -2 -2 -3 -3 -3 -3 -4 -4 -2 -2 -3
-5 -5 -6 -6 -5 -5 -5 -5 -4 -4 -5 -5 -5 -5 -4 -4 -3 -3 -3 -3 -3 -4 -4 -4 -4 -4 -3
-5 -6 -6 -6 -6 -6 -6 -7 -7 -5 -4 -4 -4 -5 -5 -4 -4 -4 -4 -3 -3 -4 -4 -5 -4 -3 -4
-6 -7 -7 -7 -7 -7 -7 -7 -7 -7 -6 -4 -4 -5 -4 -4 -5 -4 -4 -4 -4 -4 -5 -5 -4 -3 -2
-6 -7 -7 -7 -7 -7 -7 -8 -8 -7 -7 -7 -6 -6 -4 -3 -2 -3 -4 -4 -4 -4 -5 -5 -4 -1 -1
-6 -7 -7 -7 -8 -8 -8 -9 -8 -7 -7 -7 -7 -6 -5 -4 -3 -3 -4 -4 -4 -4 -4 -4 -4 -3 -2

GFSFLT2_925_temp_144.txt.gz
Temp
6 5 6 5 5 5 5 6 5 5 5 4 5 4 3 3 3 4 4 4 4 4 5 5 5 6 6
4 4 4 4 4 5 5 5 4 4 4 2 2 2 2 4 3 2 3 3 3 3 3 4 4 5 5
3 3 3 4 4 4 4 3 2 3 3 2 2 2 3 2 1 2 1 1 2 2 3 3 3 4 4
4 2 2 2 2 1 2 2 2 2 1 1 2 3 2 1 2 2 2 1 1 2 2 3 3 3 3
3 3 2 2 2 1 1 1 2 1 1 2 2 1 1 1 1 0 0 1 1 2 3 3 2 2 2
3 3 2 1 1 1 1 2 3 1 1 1 1 1 1 1 1 -0 -0 0 1 1 1 1 1 1 1
3 2 2 1 0 1 1 1 1 1 -0 1 1 1 2 1 0 -1 -0 1 0 1 0 0 0 0 0
0 0 -0 -0 -0 -0 -1 -1 -0 -0 -1 0 1 0 -0 0 0 -1 0 -0 -1 -1 -0 -0 -0 -1 -1
-1 -1 -2 -2 -2 -2 -1 -1 0 1 -1 -2 -0 -1 -1 0 -0 -1 -1 -1 -1 -1 -1 -1 -1 -1 -1
-1 -2 -2 -3 -3 -3 -3 -3 -3 -1 -2 -3 -2 -2 -1 -1 -1 -1 -1 -1 -1 -1 -1 -2 -2 -2 -2
-2 -2 -3 -3 -4 -4 -4 -4 -4 -4 -3 -4 -4 -4 -3 -2 -2 -1 -1 -1 -2 -2 -2 -3 -3 -3 -3
-2 -2 -3 -3 -4 -5 -5 -5 -5 -5 -5 -5 -5 -5 -4 -3 -2 -2 -2 -2 -2 -2 -3 -3 -3 -3 -3
-2 -3 -4 -5 -5 -5 -5 -5 -5 -4 -4 -4 -5 -5 -5 -4 -4 -3 -3 -3 -3 -3 -3 -4 -4 -4 -3
-3 -4 -5 -5 -5 -6 -6 -6 -5 -4 -4 -5 -5 -6 -5 -5 -4 -4 -3 -3 -3 -3 -3 -4 -4 -4 -3
-4 -5 -5 -5 -5 -6 -6 -6 -5 -4 -4 -4 -5 -5 -5 -5 -5 -4 -2 -2 -3 -3 -4 -4 -4 -4 -2
-5 -6 -6 -6 -6 -5 -6 -6 -5 -5 -5 -5 -5 -5 -4 -2 -3 -3 -3 -3 -3 -3 -4 -4 -4 -3 -3
-5 -6 -6 -6 -6 -6 -6 -6 -5 -5 -5 -5 -5 -6 -4 -3 -2 -2 -3 -4 -4 -4 -3 -4 -4 -4 -3

GFSFLT2_925_temp_147.txt.gz
Temp
6 5 5 5 6 6 6 7 7 7 6 6 4 3 3 3 3 3 4 4 4 4 5 5 5 5 6
5 4 4 4 5 5 5 5 5 5 5 5 3 3 3 3 3 3 3 3 3 3 3 4 4 5 5
4 3 3 4 4 4 4 4 4 3 3 2 3 3 3 3 2 2 1 1 2 2 2 3 3 4 4
4 3 3 3 3 3 3 3 3 3 2 2 2 3 2 2 1 1 1 1 1 2 2 3 3 3 3
4 4 3 3 2 1 2 2 3 2 2 2 2 2 2 2 1 1 0 0 1 1 2 2 2 2 2
4 4 3 2 2 1 2 2 2 2 1 1 2 1 2 2 2 1 0 0 1 1 1 1 1 1 1
4 3 3 1 1 1 2 1 1 1 0 1 2 1 1 1 1 0 -0 0 0 0 0 0 0 0 0
1 1 1 0 0 -0 -1 -0 0 1 -0 -0 0 -0 -0 -0 0 -0 0 0 -0 -0 -0 -0 -0 -0 -1
1 0 -0 -0 -0 -1 -1 -2 -0 1 -1 -2 -1 -2 -1 -1 0 -0 -1 -0 -1 -0 -0 -0 -1 -1 -2
-1 -1 -2 -2 -2 -2 -3 -3 -2 -1 -2 -3 -3 -3 -3 -1 -1 -1 -1 -1 -1 -1 -1 -1 -2 -2 -2
-1 -1 -2 -2 -3 -3 -4 -4 -4 -4 -3 -4 -4 -4 -3 -2 -3 -2 -2 -2 -3 -2 -2 -2 -2 -2 -3
-1 -1 -2 -3 -3 -4 -4 -4 -4 -5 -4 -5 -5 -5 -5 -4 -3 -3 -4 -4 -3 -3 -3 -3 -3 -3 -3
-1 -1 -3 -4 -4 -4 -4 -4 -4 -4 -3 -4 -5 -5 -5 -5 -5 -4 -4 -3 -3 -3 -3 -3 -4 -4 -4
-2 -3 -4 -5 -5 -5 -5 -5 -5 -4 -4 -4 -4 -5 -6 -6 -5 -5 -5 -4 -3 -3 -3 -3 -3 -4 -4
-3 -4 -5 -5 -5 -5 -5 -6 -5 -5 -4 -4 -5 -5 -5 -5 -5 -4 -4 -4 -3 -3 -3 -3 -3 -4 -4
-4 -4 -5 -5 -5 -5 -5 -5 -5 -5 -5 -5 -5 -5 -5 -4 -3 -3 -3 -3 -3 -4 -4 -4 -3 -3 -3
-4 -5 -5 -6 -6 -6 -5 -6 -5 -5 -5 -5 -5 -5 -5 -5 -4 -3 -4 -4 -5 -4 -3 -3 -3 -3 -3

GFSFLT2_925_temp_150.txt.gz
Temp
6 5 5 5 5 6 7 7 7 6 6 6 4 4 4 4 4 5 4 4 4 4 4 4 5 5 6
5 4 4 4 4 4 5 5 5 5 4 4 3 3 2 2 2 2 2 2 2 2 3 3 4 4 5
4 3 3 4 4 5 5 4 4 3 3 3 3 2 2 2 2 2 1 1 1 2 2 2 3 3 4
4 3 4 3 3 3 3 3 3 3 3 3 3 2 3 2 2 2 1 1 1 1 2 2 3 3 3
4 4 3 2 2 2 2 3 2 2 3 4 3 3 2 2 2 2 1 1 1 1 2 1 2 2 2
3 2 2 2 1 1 1 1 -1 2 1 3 2 2 2 2 1 1 1 0 1 1 1 1 1 1 1
3 2 1 1 1 1 0 0 0 1 0 1 1 2 2 1 0 0 0 0 0 0 0 0 0 0 0
2 1 1 0 0 -0 -1 -0 1 -0 -0 -1 -0 -0 1 1 0 -0 -0 -0 -0 -0 -0 0 0 -0 -1
1 1 0 -0 -0 -0 -1 -1 -2 -1 -2 -2 -2 -2 -1 -0 -0 -0 -1 -1 -1 -1 -1 -1 -1 -1 -2
-0 -0 -1 -1 -1 -1 -2 -3 -3 -3 -3 -2 -3 -4 -5 -2 -1 -2 -2 -2 -3 -3 -2 -2 -2 -2 -3
-0 -1 -1 -2 -2 -2 -3 -3 -4 -4 -3 -4 -5 -4 -4 -3 -4 -3 -3 -4 -4 -3 -3 -3 -3 -2 -3
-1 -1 -1 -2 -2 -3 -3 -3 -4 -4 -4 -4 -5 -5 -5 -5 -4 -4 -5 -5 -4 -3 -3 -3 -3 -3 -3
-1 -1 -2 -2 -3 -3 -4 -4 -4 -4 -4 -4 -4 -5 -6 -6 -5 -5 -5 -5 -4 -3 -3 -3 -3 -3 -4
-2 -2 -2 -3 -5 -5 -5 -5 -4 -3 -4 -4 -4 -5 -5 -5 -6 -5 -5 -5 -4 -3 -3 -3 -3 -3 -4
-2 -3 -3 -4 -5 -5 -5 -6 -6 -5 -5 -5 -5 -5 -5 -6 -6 -6 -5 -4 -4 -4 -4 -4 -3 -3 -3
-3 -3 -4 -5 -5 -5 -5 -5 -5 -5 -5 -5 -5 -5 -5 -4 -4 -4 -4 -4 -4 -4 -4 -4 -4 -4 -4
-3 -3 -4 -5 -5 -5 -6 -6 -6 -6 -6 -6 -6 -6 -5 -5 -5 -5 -5 -5 -5 -5 -4 -4 -4 -4 -3

GFSFLT2_925_temp_156.txt.gz
Temp
6 5 5 5 6 6 6 7 7 7 4 3 3 3 3 3 3 3 3 3 3 3 4 4 4 5 5
6 5 4 4 5 5 5 5 5 4 3 3 3 3 3 3 2 2 3 3 2 2 2 3 3 4 4
5 4 4 4 4 4 4 4 3 3 4 4 3 2 2 2 2 2 2 1 2 1 2 2 3 3 3
4 3 3 3 3 4 3 3 3 3 4 3 3 3 2 2 2 2 1 1 1 1 2 2 1 2 2
3 2 2 2 2 2 2 2 2 3 3 2 2 2 2 2 2 2 1 1 1 1 1 1 1 1 1
2 2 2 2 2 2 1 1 -0 1 2 2 2 2 2 2 2 0 1 1 0 0 0 1 1 1 1
4 3 2 2 2 1 1 1 1 1 1 1 1 2 1 1 0 -0 -0 -1 -1 -1 -0 -0 -0 -0 -0
3 3 3 2 2 2 1 1 -0 -1 0 -1 0 1 0 -0 -0 -1 -1 -1 -2 -2 -2 -2 -1 -1 -1
2 2 1 1 1 1 0 -0 -2 -1 -1 -1 -2 -1 -1 -1 -1 -1 -1 -2 -3 -2 -3 -2 -2 -2 -2
0 -0 -0 -0 -0 0 0 -0 -2 -3 -2 -2 -3 -3 -3 -1 -1 -1 -1 -2 -2 -3 -4 -3 -2 -2 -2
0 -0 -1 -1 -1 -1 -1 -1 -1 -2 -3 -3 -4 -4 -5 -4 -3 -2 -3 -3 -3 -3 -3 -3 -4 -3 -3
-1 -1 -1 -1 -1 -2 -2 -2 -2 -2 -3 -3 -4 -5 -6 -5 -5 -4 -4 -4 -4 -4 -4 -4 -3 -3 -4
-1 -1 -0 -1 -2 -3 -3 -3 -3 -3 -3 -4 -4 -5 -5 -5 -5 -5 -5 -5 -4 -4 -4 -4 -4 -4 -4
-0 -0 -1 -2 -3 -3 -4 -4 -4 -4 -4 -4 -4 -5 -5 -5 -5 -6 -6 -6 -5 -5 -5 -5 -4 -4 -4
-1 -1 -2 -3 -3 -3 -4 -5 -5 -5 -5 -5 -5 -5 -5 -5 -6 -5 -5 -5 -5 -5 -5 -5 -5 -4 -4
-1 -1 -2 -3 -3 -4 -5 -5 -6 -6 -6 -6 -6 -6 -6 -4 -4 -5 -4 -5 -5 -5 -5 -7 -6 -4 -4
-1 -1 -2 -3 -4 -4 -5 -5 -6 -6 -6 -6 -6 -7 -11 -10 -6 -5 -6 -5 -5 -6 -6 -6 -6 -5 -4

GFSFLT2_925_temp_159.txt.gz
Temp
7 6 6 6 6 6 6 6 5 5 5 6 6 6 7 7 7 6 6 5 4 4 4 4 4 4 5
7 6 5 5 5 5 5 4 4 3 3 3 3 3 3 3 3 3 3 2 2 3 3 3 3 4 5
6 5 5 4 4 4 4 4 3 4 4 4 3 3 3 2 2 3 2 1 1 2 2 2 2 3 3
5 5 3 3 3 4 4 3 3 3 4 3 3 2 2 2 2 2 2 1 1 1 2 1 1 1 2
3 2 3 3 3 3 2 2 2 3 3 3 2 2 2 2 2 2 1 1 1 1 1 1 1 1 1
2 2 3 3 2 2 2 1 -0 1 2 2 2 2 2 2 1 0 1 0 -0 -0 0 0 0 1 1
3 3 3 4 3 2 1 1 1 1 1 1 1 1 1 1 0 -0 -0 -1 -1 -1 -1 -1 -1 -1 -0
3 3 3 3 2 2 2 1 0 -0 0 -0 0 1 1 0 -0 -1 -1 -1 -2 -2 -2 -2 -1 -1 -1
2 2 2 2 1 1 1 -0 -1 -1 -1 -1 -1 -0 -0 -1 -1 -1 -1 -1 -3 -1 -3 -2 -2 -2 -2
1 1 0 0 0 1 0 -0 -1 -2 -2 -1 -2 -2 -2 -1 -1 -1 -2 -2 -2 -2 -4 -4 -3 -3 -3
1 0 -0 -0 -1 -0 -0 -1 -1 -1 -2 -2 -3 -3 -4 -4 -2 -1 -2 -1 -2 -3 -3 -3 -3 -4 -4
-0 -0 -1 -1 -1 -1 -1 -1 -2 -2 -3 -3 -3 -4 -4 -5 -5 -3 -2 -2 -3 -4 -4 -3 -3 -3 -3
-1 -1 0 0 -1 -2 -2 -2 -2 -3 -3 -3 -4 -4 -5 -5 -5 -5 -5 -4 -4 -4 -4 -4 -4 -3 -3
-0 1 -0 -1 -2 -2 -3 -3 -4 -4 -4 -4 -4 -5 -6 -6 -5 -6 -5 -6 -4 -4 -5 -5 -4 -3 -3
-0 -1 -1 -2 -2 -3 -4 -4 -5 -5 -5 -5 -5 -5 -5 -5 -6 -5 -5 -5 -5 -5 -5 -6 -5 -4 -4
-1 -1 -2 -2 -3 -4 -4 -4 -5 -5 -6 -6 -6 -6 -5 -4 -4 -5 -5 -5 -5 -5 -5 -7 -6 -5 -4
-1 -1 -2 -2 -3 -4 -4 -5 -5 -6 -6 -6 -6 -7 -12 -10 -5 -5 -6 -5 -6 -6 -6 -6 -6 -4 -4

GFSFLT2_925_temp_165.txt.gz
Temp
7 7 7 7 6 6 5 6 5 4 4 4 3 3 3 3 4 3 4 4 4 5 5 5 6 6 6
5 5 6 7 6 6 5 4 4 4 4 4 4 3 3 3 3 2 3 3 3 3 4 4 4 4 4
4 4 5 6 6 5 5 5 4 4 4 4 3 3 2 2 2 3 3 3 2 2 2 2 2 3 3
4 4 3 5 4 4 4 4 4 4 4 3 3 2 2 2 2 2 2 2 2 2 2 1 1 2 2
2 2 3 3 3 3 3 3 3 3 3 3 3 3 3 3 3 3 1 1 1 1 1 1 1 1 1
2 3 3 3 3 3 2 2 4 2 2 2 3 3 3 3 2 1 1 0 -0 1 2 1 1 0 0
3 3 2 4 4 3 2 2 2 3 2 1 2 2 2 2 1 0 -0 -1 -1 0 1 1 0 -1 -1
3 4 3 3 3 3 3 2 1 1 1 1 1 1 2 2 1 -0 -0 -1 -1 0 1 1 -1 -1 -1
3 3 3 3 2 1 1 0 1 0 1 -0 -0 0 1 1 0 -1 -1 -1 -1 -1 -1 -1 -2 -2 -2
2 2 2 2 1 1 1 -0 0 0 -0 -1 -1 -1 -0 -0 -0 -1 -1 -1 -1 -1 -1 -2 -3 -3 -3
3 2 1 1 -0 0 0 0 0 -0 0 -0 -1 -1 -2 -2 -1 -1 -1 -1 -2 -1 -2 -3 -2 -3 -3
1 -0 -0 -0 1 0 -0 -0 -1 -1 -1 -1 -1 -2 -2 -3 -2 -2 -1 -1 -1 -2 -2 -3 -2 -2 -2
-0 -0 1 1 0 -1 -1 -2 -2 -2 -2 -2 -2 -2 -3 -4 -3 -3 -3 -2 -2 -3 -3 -3 -2 -2 -3
-0 0 0 -1 -1 -2 -2 -2 -3 -3 -3 -3 -3 -4 -4 -5 -5 -5 -5 -4 -2 -3 -4 -4 -2 -2 -3
-0 -0 -0 -1 -2 -2 -3 -4 -4 -4 -4 -4 -4 -4 -5 -5 -6 -5 -5 -6 -4 -4 -4 -6 -3 -2 -2
-0 -1 -1 -2 -3 -3 -4 -4 -4 -4 -5 -5 -5 -6 -6 -4 -5 -5 -6 -6 -5 -4 -5 -6 -6 -3 -4
-1 -1 -1 -2 -2 -4 -5 -4 -4 -4 -4 -5 -5 -6 -5 -4 -4 -5 -6 -6 -6 -6 -6 -6 -6 -5 -4

GFSFLT2_925_temp_168.txt.gz
Temp
9 7 7 7 7 6 6 5 5 5 5 4 4 4 4 4 5 5 4 5 5 6 6 6 6 6 6
8 7 6 7 6 5 5 4 4 5 5 4 4 3 3 3 3 3 4 4 4 4 4 4 4 4 5
7 7 6 6 6 6 5 5 3 5 5 5 3 3 2 2 2 2 2 3 3 3 3 3 3 3 3
6 6 6 6 4 5 6 4 4 3 4 4 3 3 3 3 3 3 3 2 2 2 2 2 2 2 2
5 5 5 5 5 5 4 4 4 3 2 2 3 3 3 3 3 3 2 2 2 1 1 2 2 2 2
5 6 6 6 5 4 4 5 7 3 2 4 2 3 2 2 2 2 1 1 1 0 2 2 2 2 2
6 6 6 5 4 4 4 4 5 3 2 4 2 3 2 2 2 1 0 0 0 1 2 1 1 1 -0
3 4 4 3 3 3 3 3 3 2 2 3 2 3 2 1 2 1 -0 0 -0 -0 0 0 -1 -1 -1
4 4 3 3 2 1 1 2 4 4 1 2 2 2 1 1 1 0 -0 -0 -1 -0 -0 0 -0 -2 -1
2 3 2 2 2 1 2 1 3 3 1 1 0 0 1 -1 -1 -1 -1 -1 -1 -1 -0 -0 -0 -2 -2
3 3 2 2 1 0 0 -0 1 1 0 0 -1 -1 -1 -0 -1 -1 -2 -2 -2 -2 -1 -1 -2 -3 -3
3 3 2 1 0 0 -1 -1 -0 0 -0 -0 -1 -1 -2 -1 0 -1 -1 -1 -1 -2 -2 -2 -1 -1 -3
2 2 1 1 0 -1 -1 -1 -1 -1 -1 -1 -2 -2 -2 -2 -1 -2 -2 -2 -2 -2 -3 -3 -2 -2 -3
1 1 0 -0 -1 -1 -2 -3 -3 -3 -3 -3 -3 -3 -4 -4 -3 -3 -3 -3 -3 -3 -4 -4 -2 -3 -3
1 1 -1 -1 -2 -2 -2 -3 -3 -2 -3 -4 -3 -4 -5 -5 -4 -4 -3 -4 -4 -4 -5 -5 -3 -3 -3
0 0 -1 -1 -2 -2 -3 -3 -3 -2 -3 -4 -5 -5 -5 -4 -3 -4 -4 -4 -5 -4 -5 -5 -5 -2 -3
-0 -1 -1 -1 -1 -2 -3 -3 -3 -3 -3 -4 -4 -4 -3 -2 -4 -4 -4 -4 -5 -5 -5 -5 -5 -3 -3

GFSFLT2_925_temp_174.txt.gz
Temp
8 8 8 8 8 7 7 7 6 6 5 6 5 5 5 5 6 6 5 6 6 6 6 6 7 7 7
7 8 8 8 8 7 7 6 6 6 6 5 5 4 5 5 5 5 4 5 5 4 5 5 5 5 6
7 7 7 7 7 7 7 6 6 6 6 5 5 4 4 4 4 4 3 4 4 5 5 5 4 4 4
7 7 7 7 6 6 6 6 6 6 5 5 4 4 3 4 4 4 3 3 3 3 3 4 4 3 3
6 6 6 6 6 6 5 5 6 5 5 5 4 4 4 4 4 4 4 2 2 2 2 3 3 3 3
6 5 5 6 6 6 5 4 2 5 4 5 5 5 4 4 3 3 3 2 2 2 2 3 2 2 3
5 5 5 6 6 6 5 4 4 5 4 4 5 5 5 4 3 3 3 1 1 1 2 2 2 2 3
5 6 5 5 5 5 5 4 3 4 3 3 4 4 4 4 3 3 2 1 0 0 1 1 1 2 2
5 5 5 4 4 4 3 3 1 3 3 3 3 3 3 3 3 2 2 1 0 -0 -0 0 0 1 1
5 5 5 4 4 3 3 2 2 2 3 2 2 2 1 1 1 1 1 1 0 -0 -0 -1 -1 -1 0
4 4 4 4 4 3 2 2 1 2 2 2 1 0 1 0 1 1 1 0 -0 -0 -1 -1 -1 -1 -1
3 3 3 3 3 3 3 2 1 1 1 1 1 1 -0 -1 0 0 1 0 -0 -0 -1 -1 -1 -1 -2
2 3 3 3 3 2 2 1 1 0 0 -0 -0 0 -0 -0 -0 -1 -0 0 -0 -0 -1 -1 -1 -1 -1
2 2 2 2 2 2 1 0 -1 -1 -1 -1 -1 -1 -1 -2 -2 -2 -1 -1 -1 -2 -2 -2 -1 -1 -1
1 1 1 1 1 1 0 -1 -2 -2 -2 -1 -2 -2 -3 -3 -3 -2 -2 -2 -2 -3 -3 -3 -2 -1 -1
0 0 0 0 -0 -0 -1 -2 -2 -3 -2 -3 -2 -4 -5 -4 -3 -3 -3 -3 -3 -3 -3 -4 -3 -1 -2
-0 -0 -0 -0 -1 -1 -1 -2 -2 -2 -2 -2 -3 -4 -6 -5 -2 -3 -3 -3 -3 -3 -4 -4 -4 -2 -2

GFSFLT2_925_temp_177.txt.gz
Temp
8 8 8 8 8 8 8 7 7 6 6 6 6 6 5 4 4 4 5 5 6 6 6 7 7 7 8
7 7 7 8 8 7 7 7 7 6 6 6 6 5 4 4 4 4 3 4 4 4 5 5 5 6 6
6 7 7 7 7 7 7 7 7 7 6 6 5 5 4 4 4 4 3 3 3 3 3 3 4 4 4
6 7 7 7 7 6 7 7 7 7 6 6 5 5 4 4 4 4 4 3 3 2 3 4 4 3 3
5 5 6 6 6 6 5 6 6 6 6 5 5 5 5 4 4 4 4 3 2 2 3 4 4 4 4
5 4 5 6 6 6 5 4 2 5 5 6 5 6 6 5 4 4 3 3 2 2 2 3 3 3 3
5 5 5 6 6 5 5 4 4 5 4 4 5 5 6 5 4 3 3 3 1 1 1 2 2 2 2
5 5 5 5 4 5 5 5 4 4 4 2 4 5 5 4 4 3 3 2 1 0 0 1 1 1 1
5 5 5 5 4 4 3 3 1 3 4 2 3 3 4 4 3 3 2 2 1 1 0 -0 -0 0 1
4 5 5 4 4 3 3 3 2 2 3 2 2 2 2 2 2 2 2 1 1 1 0 -0 -0 -1 0
3 4 4 4 4 3 3 2 2 2 2 2 2 1 1 1 2 2 2 1 1 0 -0 -0 -0 -0 -1
3 3 3 4 4 4 4 3 2 2 1 1 2 1 1 -0 1 1 2 2 1 1 0 -0 -0 -1 -1
3 3 3 3 3 2 3 2 2 1 1 0 0 1 -0 -0 1 0 1 1 1 1 -0 -1 -1 -1 -1
1 1 1 2 2 2 2 2 1 0 -0 -1 -1 -1 -1 -1 -1 -1 -1 -1 -0 -1 -1 -1 -1 -1 -1
0 1 1 1 1 1 1 0 -1 -1 -1 -1 -1 -2 -2 -2 -3 -2 -2 -2 -1 -2 -3 -3 -2 -1 -1
1 0 0 0 0 0 -0 -1 -1 -2 -1 -2 -3 -4 -5 -4 -3 -3 -3 -3 -2 -2 -3 -3 -3 -1 -1
0 -0 -0 -0 -1 -1 -1 -1 -2 -2 -1 -2 -3 -4 -5 -5 -2 -2 -2 -2 -3 -3 -3 -4 -4 -2 -2

GFSFLT2_925_temp_180.txt.gz
Temp
8 8 8 8 8 8 8 7 7 7 7 6 6 6 5 5 5 4 4 4 5 6 6 7 7 8 8
8 8 8 8 7 7 8 8 7 7 7 6 6 6 5 5 4 4 3 4 5 5 5 5 6 6 7
7 7 7 7 7 7 7 7 7 7 7 6 6 6 5 4 4 4 4 3 3 4 5 5 4 4 5
6 5 6 7 6 6 6 7 7 7 7 6 6 6 5 4 4 4 4 3 2 2 3 4 5 4 4
5 4 5 5 6 6 6 6 6 6 7 7 6 6 6 5 4 4 4 3 3 2 2 3 3 3 3
5 4 5 5 5 5 5 4 2 6 5 6 6 6 6 6 5 4 4 3 2 2 2 2 3 2 3
5 5 4 5 5 5 4 4 4 5 4 4 5 6 6 6 5 4 4 3 2 1 1 2 2 2 2
5 5 5 5 4 4 4 4 4 4 3 2 3 4 5 5 5 4 3 3 2 1 0 1 1 1 1
5 4 4 4 4 4 3 2 1 3 4 2 3 3 4 4 4 3 2 2 2 1 1 -0 -0 -0 -0
4 4 4 4 3 3 3 2 2 3 3 2 2 2 2 3 3 3 2 2 1 1 1 0 -0 -1 -1
3 3 3 3 4 3 3 3 2 2 2 2 2 2 1 2 2 3 3 2 2 2 1 1 -0 -0 -0
2 2 3 3 3 3 3 3 3 3 2 2 1 2 2 1 1 2 2 2 2 2 1 0 -0 -0 -1
2 2 2 2 2 2 2 2 2 2 1 0 0 1 1 1 1 1 1 1 1 1 0 0 -0 -0 -1
1 1 -0 0 0 1 1 1 1 1 1 -0 -0 -1 -1 -1 -1 -1 -0 -0 -0 0 -0 -1 -1 -1 -1
1 1 1 0 0 0 0 0 -0 -0 -0 -1 -1 -2 -2 -2 -3 -2 -2 -2 -1 -1 -2 -2 -1 -1 -2
1 1 0 0 0 1 -0 -1 -1 -1 -1 -1 -2 -4 -4 -3 -3 -3 -2 -2 -2 -2 -3 -3 -2 -1 -2
0 0 -0 -1 -1 -1 -1 -1 -1 -1 -1 -1 -2 -4 -8 -7 -2 -2 -2 -1 -2 -3 -3 -3 -3 -2 -3

GFSFLT2_925_temp_183.txt.gz
Temp
8 9 8 8 8 8 8 8 8 7 7 7 6 6 6 5 5 5 4 5 5 5 6 7 7 8 9
7 8 9 9 8 8 8 8 8 8 7 7 6 6 6 5 4 4 4 4 5 5 5 5 6 6 7
6 6 7 7 7 7 7 7 8 8 8 7 7 6 6 5 4 4 4 3 3 4 5 5 4 5 5
5 5 6 6 6 5 6 7 7 7 7 7 7 6 6 5 4 4 4 4 3 3 4 5 5 5 4
4 4 4 4 5 6 5 6 6 6 7 7 7 7 6 6 5 4 4 4 3 2 3 3 3 3 3
4 4 5 6 6 5 4 3 2 6 5 6 6 6 7 6 6 5 4 4 3 2 2 2 3 3 3
4 5 5 5 5 4 3 3 3 5 4 4 5 5 6 6 6 5 5 4 3 2 1 1 2 2 2
4 4 4 4 4 4 3 3 3 3 3 2 4 4 5 5 5 5 4 4 3 2 1 0 1 1 1
4 4 4 4 3 3 2 2 1 2 3 2 3 3 4 4 4 4 4 3 3 2 1 0 -0 -0 -0
3 3 3 3 3 3 3 2 2 3 2 2 2 2 2 3 2 3 3 2 2 2 1 1 0 -0 -1
2 2 2 3 3 3 3 2 2 2 3 3 2 2 2 2 2 3 2 2 2 1 1 1 1 0 -0
2 2 2 2 2 2 2 2 2 2 2 2 2 2 2 1 2 2 3 2 2 2 1 1 1 0 -0
2 1 2 1 1 1 1 2 2 2 1 1 1 0 0 1 1 1 2 2 2 1 1 1 1 0 0
1 2 1 1 -0 -1 0 0 1 1 1 1 0 -0 -1 -1 -1 -0 -0 -0 0 0 0 0 -0 -0 -0
0 0 0 0 0 0 0 0 -1 -0 0 0 -0 -1 -1 -2 -2 -2 -1 -1 -1 -1 -1 -1 -1 -1 -1
1 0 0 0 -0 -0 -0 -1 -1 -1 -1 -1 -1 -3 -3 -2 -2 -2 -2 -2 -1 -1 -2 -3 -2 -1 -1
-1 -0 0 -0 -1 -1 -1 -1 -1 -1 -1 -1 -2 -3 -6 -7 -2 -2 -3 -3 -3 -3 -3 -4 -3 -1 -2